| time (UTC) | temp F | wind direction | speed knots | gust knots | rain 1hr in | rain 24hr in | rain mn in | humidity % | barometer mb |
| 20260508043841 | 50 | 234 | 0.0 | 0.0 | 0.00 | 0.00 | 0.00 | 26 | 1019.1 |
| 20260508043327 | 50 | 234 | 0.0 | 0.0 | 0.00 | 0.00 | 0.00 | 25 | 1019.2 |
| 20260508042836 | 51 | 234 | 0.0 | 0.0 | 0.00 | 0.00 | 0.00 | 24 | 1019.2 |
| 20260508042340 | 51 | 234 | 0.0 | 0.0 | 0.00 | 0.00 | 0.00 | 24 | 1019.2 |
| 20260508041845 | 51 | 234 | 0.0 | 0.0 | 0.00 | 0.00 | 0.00 | 22 | 1019.2 |
| 20260508041330 | 52 | 234 | 0.0 | 0.0 | 0.00 | 0.00 | 0.00 | 22 | 1019.1 |
| 20260508040836 | 52 | 234 | 0.0 | 0.0 | 0.00 | 0.00 | 0.00 | 21 | 1019.1 |
| 20260508040345 | 52 | 234 | 0.0 | 0.0 | 0.00 | 0.00 | 0.00 | 21 | 1019.1 |
| 20260508035831 | 53 | 234 | 0.0 | 0.0 | 0.00 | 0.00 | 0.00 | 22 | 1019.0 |
| 20260508035339 | 53 | 234 | 0.0 | 0.0 | 0.00 | 0.00 | 0.00 | 21 | 1019.0 |
| 20260508034844 | 54 | 234 | 0.0 | 0.0 | 0.00 | 0.00 | 0.00 | 20 | 1018.9 |
| 20260508034332 | 55 | 234 | 0.0 | 0.0 | 0.00 | 0.00 | 0.00 | 18 | 1018.9 |
| 20260508033840 | 56 | 234 | 0.0 | 0.0 | 0.00 | 0.00 | 0.00 | 16 | 1018.7 |
| 20260508033346 | 56 | 234 | 0.0 | 0.0 | 0.00 | 0.00 | 0.00 | 16 | 1018.6 |
| 20260508032831 | 57 | 234 | 0.0 | 1.7 | 0.00 | 0.00 | 0.00 | 15 | 1018.5 |
| 20260508032337 | 57 | 234 | 0.0 | 2.6 | 0.00 | 0.00 | 0.00 | 14 | 1018.4 |
| 20260508031842 | 58 | 235 | 0.0 | 3.5 | 0.00 | 0.00 | 0.00 | 14 | 1018.2 |
| 20260508031330 | 58 | 237 | 0.0 | 3.5 | 0.00 | 0.00 | 0.00 | 14 | 1018.1 |
| 20260508030839 | 59 | 238 | 0.9 | 5.2 | 0.00 | 0.00 | 0.00 | 13 | 1018.0 |
| 20260508030343 | 59 | 177 | 1.7 | 5.2 | 0.00 | 0.00 | 0.00 | 13 | 1017.9 |
| 20260508025831 | 59 | 262 | 0.9 | 3.5 | 0.00 | 0.00 | 0.00 | 12 | 1017.9 |
| 20260508025339 | 60 | 189 | 0.0 | 4.3 | 0.00 | 0.00 | 0.00 | 12 | 1017.8 |
| 20260508024845 | 60 | 189 | 0.9 | 5.2 | 0.00 | 0.00 | 0.00 | 12 | 1017.7 |
| 20260508024330 | 60 | 204 | 0.9 | 5.2 | 0.00 | 0.00 | 0.00 | 12 | 1017.6 |
| 20260508023834 | 61 | 199 | 0.9 | 3.5 | 0.00 | 0.00 | 0.00 | 12 | 1017.6 |
| 20260508023342 | 61 | 194 | 0.9 | 3.5 | 0.00 | 0.00 | 0.00 | 12 | 1017.6 |
| 20260508022832 | 62 | 180 | 0.0 | 1.7 | 0.00 | 0.00 | 0.00 | 11 | 1017.5 |
| 20260508022340 | 62 | 198 | 0.0 | 1.7 | 0.00 | 0.00 | 0.00 | 11 | 1017.5 |
| 20260508021844 | 62 | 198 | 0.0 | 4.3 | 0.00 | 0.00 | 0.00 | 12 | 1017.4 |
| 20260508021350 | 63 | 198 | 0.9 | 6.1 | 0.00 | 0.00 | 0.00 | 10 | 1017.4 |
| 20260508020834 | 63 | 173 | 0.0 | 6.1 | 0.00 | 0.00 | 0.00 | 11 | 1017.4 |
| 20260508020340 | 63 | 196 | 0.9 | 4.3 | 0.00 | 0.00 | 0.00 | 10 | 1017.3 |
| 20260508015845 | 64 | 187 | 1.7 | 6.1 | 0.00 | 0.00 | 0.00 | 10 | 1017.3 |
| 20260508015333 | 64 | 157 | 1.7 | 6.1 | 0.00 | 0.00 | 0.00 | 10 | 1017.2 |
| 20260508014838 | 64 | 185 | 2.6 | 7.8 | 0.00 | 0.00 | 0.00 | 10 | 1017.3 |
| 20260508014343 | 65 | 182 | 0.9 | 7.8 | 0.00 | 0.00 | 0.00 | 10 | 1017.3 |
| 20260508013833 | 65 | 184 | 1.7 | 6.1 | 0.00 | 0.00 | 0.00 | 11 | 1017.3 |
| 20260508013337 | 65 | 153 | 2.6 | 6.1 | 0.00 | 0.00 | 0.00 | 10 | 1017.2 |
| 20260508012842 | 66 | 190 | 1.7 | 6.1 | 0.00 | 0.00 | 0.00 | 10 | 1017.2 |
| 20260508012326 | 66 | 171 | 1.7 | 6.1 | 0.00 | 0.00 | 0.00 | 10 | 1017.1 |
| 20260508011834 | 66 | 211 | 1.7 | 5.2 | 0.00 | 0.00 | 0.00 | 10 | 1017.1 |
| 20260508011339 | 67 | 200 | 0.9 | 7.8 | 0.00 | 0.00 | 0.00 | 10 | 1017.0 |
| 20260508010848 | 67 | 212 | 0.9 | 8.7 | 0.00 | 0.00 | 0.00 | 10 | 1017.1 |
| 20260508010332 | 67 | 196 | 3.5 | 8.7 | 0.00 | 0.00 | 0.00 | 10 | 1017.1 |
| 20260508005836 | 68 | 183 | 4.3 | 9.6 | 0.00 | 0.01 | 0.00 | 10 | 1017.1 |
| 20260508005342 | 68 | 171 | 1.7 | 6.1 | 0.00 | 0.01 | 0.00 | 11 | 1017.1 |
| 20260508004830 | 69 | 180 | 0.9 | 5.2 | 0.00 | 0.01 | 0.00 | 10 | 1017.1 |
| 20260508004338 | 69 | 202 | 1.7 | 7.0 | 0.00 | 0.01 | 0.00 | 11 | 1017.2 |
| 20260508003845 | 69 | 238 | 0.9 | 7.0 | 0.00 | 0.01 | 0.00 | 10 | 1017.1 |
| 20260508003330 | 68 | 186 | 0.9 | 7.8 | 0.00 | 0.01 | 0.00 | 11 | 1017.2 |
| 20260508002835 | 69 | 171 | 2.6 | 7.8 | 0.00 | 0.01 | 0.00 | 10 | 1017.2 |
| 20260508002340 | 69 | 193 | 1.7 | 4.3 | 0.00 | 0.01 | 0.00 | 11 | 1017.2 |
| 20260508001843 | 68 | 188 | 1.7 | 4.3 | 0.00 | 0.01 | 0.00 | 11 | 1017.4 |
| 20260508001348 | 68 | 186 | 0.9 | 7.0 | 0.00 | 0.01 | 0.00 | 11 | 1017.3 |
| 20260508000833 | 68 | 167 | 3.5 | 7.0 | 0.00 | 0.01 | 0.00 | 11 | 1017.3 |
| 20260508000338 | 69 | 253 | 1.7 | 8.7 | 0.00 | 0.01 | 0.00 | 11 | 1017.4 |
| 20260507235844 | 69 | 211 | 4.3 | 8.7 | 0.00 | 0.01 | 0.00 | 11 | 1017.4 |
| 20260507235332 | 69 | 254 | 2.6 | 6.1 | 0.00 | 0.01 | 0.00 | 12 | 1017.4 |
| 20260507234840 | 68 | 194 | 1.7 | 6.1 | 0.00 | 0.01 | 0.00 | 13 | 1017.4 |
| 20260507234345 | 69 | 188 | 1.7 | 8.7 | 0.00 | 0.01 | 0.00 | 13 | 1017.4 |
| 20260507233830 | 69 | 233 | 2.6 | 8.7 | 0.00 | 0.01 | 0.00 | 13 | 1017.4 |
| 20260507233335 | 69 | 178 | 3.5 | 8.7 | 0.00 | 0.01 | 0.00 | 13 | 1017.4 |
| 20260507232840 | 70 | 218 | 1.7 | 8.7 | 0.00 | 0.01 | 0.00 | 14 | 1017.5 |
| 20260507232345 | 69 | 232 | 3.5 | 7.0 | 0.00 | 0.01 | 0.00 | 14 | 1017.5 |
| 20260507231830 | 70 | 238 | 3.5 | 6.1 | 0.00 | 0.01 | 0.00 | 14 | 1017.6 |
| 20260507231334 | 69 | 252 | 1.7 | 6.1 | 0.00 | 0.01 | 0.00 | 16 | 1017.5 |
| 20260507230842 | 69 | 195 | 2.6 | 5.2 | 0.00 | 0.01 | 0.00 | 15 | 1017.5 |
| 20260507230331 | 69 | 193 | 1.7 | 7.8 | 0.00 | 0.01 | 0.00 | 16 | 1017.6 |
| 20260507225837 | 69 | 196 | 0.9 | 8.7 | 0.00 | 0.01 | 0.00 | 16 | 1017.5 |
| 20260507225342 | 69 | 213 | 3.5 | 8.7 | 0.00 | 0.01 | 0.00 | 16 | 1017.7 |
| 20260507224830 | 68 | 250 | 1.7 | 8.7 | 0.00 | 0.01 | 0.00 | 18 | 1017.7 |
| 20260507224335 | 69 | 182 | 2.6 | 8.7 | 0.00 | 0.01 | 0.00 | 17 | 1017.7 |
| 20260507223841 | 70 | 190 | 2.6 | 7.8 | 0.00 | 0.01 | 0.00 | 17 | 1017.7 |
| 20260507223345 | 70 | 214 | 3.5 | 7.8 | 0.00 | 0.01 | 0.00 | 17 | 1017.8 |
| 20260507222834 | 70 | 241 | 0.9 | 5.2 | 0.00 | 0.01 | 0.00 | 18 | 1017.8 |
| 20260507222340 | 69 | 280 | 1.7 | 3.5 | 0.00 | 0.01 | 0.00 | 16 | 1017.9 |
| 20260507221830 | 69 | 213 | 0.0 | 4.3 | 0.00 | 0.01 | 0.00 | 17 | 1018.0 |
| 20260507221336 | 68 | 249 | 0.9 | 7.0 | 0.00 | 0.01 | 0.00 | 16 | 1018.0 |
| 20260507220842 | 69 | 234 | 2.6 | 9.6 | 0.00 | 0.01 | 0.00 | 15 | 1018.1 |
| 20260507220346 | 69 | 250 | 3.5 | 9.6 | 0.00 | 0.01 | 0.00 | 16 | 1018.3 |
| 20260507215832 | 69 | 208 | 2.6 | 7.0 | 0.00 | 0.01 | 0.00 | 16 | 1018.2 |
| 20260507215337 | 69 | 196 | 1.7 | 8.7 | 0.00 | 0.01 | 0.00 | 16 | 1018.3 |
| 20260507214845 | 69 | 252 | 3.5 | 8.7 | 0.00 | 0.01 | 0.00 | 15 | 1018.4 |
| 20260507214333 | 69 | 265 | 1.7 | 5.2 | 0.00 | 0.01 | 0.00 | 15 | 1018.4 |
| 20260507213838 | 68 | 224 | 1.7 | 8.7 | 0.00 | 0.01 | 0.00 | 15 | 1018.5 |
| 20260507213345 | 68 | 234 | 1.7 | 9.6 | 0.00 | 0.01 | 0.00 | 13 | 1018.6 |
| 20260507212835 | 69 | 263 | 2.6 | 9.6 | 0.00 | 0.01 | 0.00 | 13 | 1018.7 |
| 20260507212340 | 68 | 306 | 2.6 | 5.2 | 0.00 | 0.01 | 0.00 | 13 | 1018.8 |
| 20260507211846 | 68 | 183 | 0.9 | 6.1 | 0.00 | 0.01 | 0.00 | 11 | 1018.8 |
| 20260507211334 | 67 | 238 | 2.6 | 8.7 | 0.00 | 0.01 | 0.00 | 12 | 1019.0 |
| 20260507210842 | 68 | 313 | 3.5 | 8.7 | 0.00 | 0.01 | 0.00 | 12 | 1019.0 |
| 20260507210348 | 67 | 261 | 1.7 | 5.2 | 0.00 | 0.01 | 0.00 | 11 | 1019.1 |
| 20260507205833 | 67 | 302 | 1.7 | 5.2 | 0.00 | 0.01 | 0.00 | 11 | 1019.2 |
| 20260507205338 | 67 | 312 | 1.7 | 7.8 | 0.00 | 0.01 | 0.00 | 12 | 1019.2 |
| 20260507204844 | 67 | 288 | 3.5 | 9.6 | 0.00 | 0.01 | 0.00 | 11 | 1019.4 |
| 20260507204331 | 66 | 294 | 1.7 | 9.6 | 0.00 | 0.01 | 0.00 | 11 | 1019.4 |
| 20260507203840 | 67 | 278 | 2.6 | 7.8 | 0.00 | 0.01 | 0.00 | 8 | 1019.5 |
| 20260507203345 | 67 | 296 | 1.7 | 11.3 | 0.00 | 0.01 | 0.00 | 8 | 1019.6 |
| 20260507202829 | 66 | 276 | 5.2 | 11.3 | 0.00 | 0.01 | 0.00 | 9 | 1019.6 |
| 20260507202335 | 66 | 330 | 1.7 | 7.0 | 0.00 | 0.01 | 0.00 | 9 | 1019.7 |
| 20260507201844 | 66 | 302 | 3.5 | 7.0 | 0.00 | 0.01 | 0.00 | 8 | 1019.8 |
| 20260507201330 | 66 | 297 | 2.6 | 7.0 | 0.00 | 0.01 | 0.00 | 8 | 1019.8 |
| 20260507200838 | 66 | 243 | 3.5 | 9.6 | 0.00 | 0.01 | 0.00 | 8 | 1019.9 |
| 20260507200343 | 66 | 277 | 3.5 | 9.6 | 0.00 | 0.01 | 0.00 | 10 | 1019.9 |
| 20260507195832 | 66 | 295 | 1.7 | 7.8 | 0.00 | 0.01 | 0.00 | 9 | 1020.0 |
| 20260507195337 | 65 | 28 | 2.6 | 7.8 | 0.00 | 0.01 | 0.00 | 10 | 1020.0 |
| 20260507194846 | 65 | 355 | 3.5 | 7.8 | 0.00 | 0.01 | 0.00 | 8 | 1020.1 |
| 20260507194331 | 65 | 276 | 3.5 | 7.8 | 0.00 | 0.01 | 0.00 | 11 | 1020.2 |
| 20260507193836 | 65 | 332 | 2.6 | 7.0 | 0.00 | 0.01 | 0.00 | 10 | 1020.3 |
| 20260507193343 | 64 | 26 | 3.5 | 8.7 | 0.00 | 0.01 | 0.00 | 10 | 1020.4 |
| 20260507192846 | 64 | 311 | 1.7 | 11.3 | 0.00 | 0.01 | 0.00 | 10 | 1020.3 |
| 20260507192332 | 64 | 271 | 3.5 | 11.3 | 0.00 | 0.01 | 0.00 | 10 | 1020.4 |
| 20260507191838 | 64 | 276 | 3.5 | 9.6 | 0.00 | 0.01 | 0.00 | 12 | 1020.4 |
| 20260507191343 | 64 | 325 | 2.6 | 8.7 | 0.00 | 0.01 | 0.00 | 12 | 1020.4 |
| 20260507190831 | 64 | 300 | 3.5 | 8.7 | 0.00 | 0.01 | 0.00 | 14 | 1020.4 |
| 20260507190339 | 64 | 263 | 2.6 | 8.7 | 0.00 | 0.01 | 0.00 | 12 | 1020.5 |
| 20260507185848 | 63 | 268 | 3.5 | 9.6 | 0.00 | 0.01 | 0.00 | 11 | 1020.4 |
| 20260507185332 | 62 | 312 | 2.6 | 10.4 | 0.00 | 0.01 | 0.00 | 14 | 1020.5 |
| 20260507184837 | 62 | 316 | 5.2 | 11.3 | 0.00 | 0.01 | 0.00 | 14 | 1020.6 |
| 20260507184341 | 62 | 9 | 4.3 | 11.3 | 0.00 | 0.01 | 0.00 | 14 | 1020.7 |
| 20260507183829 | 62 | 308 | 3.5 | 9.6 | 0.00 | 0.01 | 0.00 | 15 | 1020.7 |
| 20260507183336 | 61 | 308 | 4.3 | 11.3 | 0.00 | 0.01 | 0.00 | 15 | 1020.7 |
| 20260507182841 | 61 | 333 | 6.1 | 12.2 | 0.00 | 0.01 | 0.00 | 15 | 1020.7 |
| 20260507182345 | 61 | 317 | 5.2 | 12.2 | 0.00 | 0.01 | 0.00 | 17 | 1020.9 |
| 20260507181830 | 60 | 311 | 4.3 | 10.4 | 0.00 | 0.01 | 0.00 | 19 | 1021.0 |
| 20260507181335 | 60 | 339 | 6.1 | 10.4 | 0.00 | 0.01 | 0.00 | 19 | 1021.1 |
| 20260507180847 | 60 | 336 | 2.6 | 13.0 | 0.00 | 0.01 | 0.00 | 20 | 1021.1 |
| 20260507180331 | 59 | 320 | 5.2 | 13.0 | 0.00 | 0.01 | 0.00 | 21 | 1021.2 |
| 20260507175836 | 58 | 319 | 6.1 | 14.8 | 0.00 | 0.01 | 0.00 | 25 | 1021.3 |
| 20260507175340 | 59 | 331 | 8.7 | 14.8 | 0.00 | 0.01 | 0.00 | 24 | 1021.3 |
| 20260507174845 | 59 | 310 | 7.8 | 12.2 | 0.00 | 0.01 | 0.00 | 25 | 1021.4 |
| 20260507174329 | 58 | 310 | 3.5 | 11.3 | 0.00 | 0.01 | 0.00 | 27 | 1021.5 |
| 20260507173834 | 57 | 290 | 3.5 | 12.2 | 0.00 | 0.01 | 0.00 | 29 | 1021.6 |
| 20260507173341 | 57 | 311 | 5.2 | 13.0 | 0.00 | 0.01 | 0.00 | 29 | 1021.7 |
| 20260507172829 | 57 | 313 | 4.3 | 13.9 | 0.00 | 0.01 | 0.00 | 32 | 1021.6 |
| 20260507172333 | 56 | 296 | 7.0 | 13.9 | 0.00 | 0.01 | 0.00 | 31 | 1021.8 |
| 20260507171842 | 56 | 301 | 3.5 | 13.0 | 0.00 | 0.01 | 0.00 | 34 | 1021.8 |
| 20260507171330 | 55 | 330 | 4.3 | 13.0 | 0.00 | 0.01 | 0.00 | 36 | 1021.9 |
| 20260507170837 | 54 | 305 | 5.2 | 15.6 | 0.00 | 0.01 | 0.00 | 36 | 1021.9 |
| 20260507170342 | 54 | 284 | 5.2 | 15.6 | 0.00 | 0.01 | 0.00 | 37 | 1022.0 |
| 20260507165846 | 53 | 18 | 7.8 | 14.8 | 0.00 | 0.01 | 0.00 | 37 | 1022.0 |
| 20260507165332 | 53 | 331 | 7.0 | 15.6 | 0.00 | 0.01 | 0.00 | 37 | 1022.1 |
| 20260507164836 | 53 | 5 | 7.0 | 15.6 | 0.00 | 0.01 | 0.00 | 39 | 1022.0 |
| 20260507164341 | 52 | 296 | 7.0 | 12.2 | 0.00 | 0.01 | 0.00 | 41 | 1022.1 |
| 20260507163845 | 51 | 355 | 6.1 | 13.9 | 0.00 | 0.01 | 0.00 | 44 | 1022.2 |
| 20260507163330 | 50 | 311 | 7.8 | 15.6 | 0.00 | 0.01 | 0.00 | 43 | 1022.3 |
| 20260507162839 | 51 | 311 | 3.5 | 15.6 | 0.00 | 0.01 | 0.00 | 48 | 1022.3 |
| 20260507162346 | 50 | 15 | 7.0 | 13.0 | 0.00 | 0.01 | 0.00 | 46 | 1022.2 |
| 20260507161831 | 49 | 288 | 7.0 | 13.0 | 0.00 | 0.01 | 0.00 | 47 | 1022.3 |
| 20260507161336 | 49 | 319 | 5.2 | 12.2 | 0.00 | 0.01 | 0.00 | 50 | 1022.5 |
| 20260507160840 | 48 | 279 | 4.3 | 11.3 | 0.00 | 0.01 | 0.00 | 51 | 1022.5 |
| 20260507160348 | 47 | 46 | 7.0 | 11.3 | 0.00 | 0.01 | 0.00 | 51 | 1022.5 |
| 20260507155832 | 47 | 308 | 5.2 | 10.4 | 0.00 | 0.01 | 0.00 | 52 | 1022.7 |
| 20260507155336 | 46 | 315 | 5.2 | 11.3 | 0.00 | 0.01 | 0.00 | 54 | 1022.8 |
| 20260507154841 | 46 | 318 | 6.1 | 13.9 | 0.00 | 0.01 | 0.00 | 55 | 1022.8 |
| 20260507154326 | 46 | 287 | 7.0 | 13.9 | 0.00 | 0.01 | 0.00 | 55 | 1022.8 |
| 20260507153915 | 46 | 323 | 6.1 | 11.3 | 0.00 | 0.01 | 0.00 | 54 | 1022.7 |
| 20260507153837 | 46 | 323 | 6.1 | 11.3 | 0.00 | 0.01 | 0.00 | 54 | 1022.7 |
| 20260507153550 | 45 | 335 | 3.5 | 12.2 | 0.00 | 0.01 | 0.00 | 58 | 1022.8 |
| 20260507153342 | 45 | 335 | 3.5 | 12.2 | 0.00 | 0.01 | 0.00 | 58 | 1022.8 |
| 20260507152846 | 45 | 342 | 7.0 | 13.0 | 0.00 | 0.01 | 0.00 | 56 | 1023.0 |
| 20260507152409 | 44 | 300 | 3.5 | 10.4 | 0.00 | 0.01 | 0.00 | 57 | 1023.0 |
| 20260507152330 | 45 | 298 | 5.2 | 13.0 | 0.00 | 0.01 | 0.00 | 55 | 1022.9 |
| 20260507151835 | 44 | 300 | 3.5 | 10.4 | 0.00 | 0.01 | 0.00 | 57 | 1023.0 |
| 20260507151339 | 45 | 5 | 6.1 | 10.4 | 0.00 | 0.01 | 0.00 | 54 | 1023.0 |
| 20260507150826 | 45 | 355 | 5.2 | 8.7 | 0.00 | 0.01 | 0.00 | 54 | 1023.0 |
| 20260507150334 | 45 | 318 | 4.3 | 8.7 | 0.00 | 0.01 | 0.00 | 53 | 1023.0 |
| 20260507145841 | 44 | 311 | 3.5 | 7.8 | 0.00 | 0.01 | 0.00 | 58 | 1023.0 |
| 20260507145347 | 44 | 304 | 1.7 | 7.0 | 0.00 | 0.01 | 0.00 | 59 | 1023.1 |
| 20260507144835 | 44 | 319 | 3.5 | 7.0 | 0.00 | 0.01 | 0.00 | 61 | 1023.0 |
| 20260507144339 | 43 | 317 | 2.6 | 6.1 | 0.00 | 0.01 | 0.00 | 63 | 1023.1 |
| 20260507143844 | 43 | 325 | 0.9 | 7.8 | 0.00 | 0.01 | 0.00 | 64 | 1023.2 |
| 20260507143328 | 42 | 351 | 2.6 | 9.6 | 0.00 | 0.01 | 0.00 | 65 | 1023.2 |
| 20260507142833 | 42 | 327 | 5.2 | 9.6 | 0.00 | 0.01 | 0.00 | 64 | 1023.4 |
| 20260507142336 | 42 | 304 | 3.5 | 9.6 | 0.00 | 0.01 | 0.00 | 67 | 1023.4 |
| 20260507141841 | 42 | 320 | 1.7 | 7.0 | 0.00 | 0.01 | 0.00 | 67 | 1023.4 |
| 20260507141326 | 42 | 321 | 1.7 | 6.1 | 0.00 | 0.01 | 0.00 | 68 | 1023.4 |
| 20260507140833 | 41 | 336 | 1.7 | 6.1 | 0.00 | 0.01 | 0.00 | 70 | 1023.5 |
| 20260507140338 | 41 | 310 | 2.6 | 5.2 | 0.00 | 0.01 | 0.00 | 72 | 1023.6 |
| 20260507135827 | 40 | 348 | 1.7 | 5.2 | 0.00 | 0.01 | 0.00 | 76 | 1023.6 |
| 20260507135334 | 39 | 336 | 1.7 | 3.5 | 0.00 | 0.01 | 0.00 | 78 | 1023.6 |
| 20260507134838 | 38 | 94 | 0.0 | 0.0 | 0.00 | 0.01 | 0.00 | 79 | 1023.6 |
| 20260507134343 | 38 | 94 | 0.0 | 0.0 | 0.00 | 0.01 | 0.00 | 81 | 1023.6 |
| 20260507133847 | 37 | 94 | 0.0 | 0.0 | 0.00 | 0.01 | 0.00 | 82 | 1023.5 |
| 20260507133333 | 36 | 94 | 0.0 | 0.0 | 0.00 | 0.01 | 0.00 | 82 | 1023.5 |
| 20260507132838 | 36 | 94 | 0.0 | 0.0 | 0.00 | 0.01 | 0.00 | 82 | 1023.5 |
| 20260507132343 | 36 | 94 | 0.0 | 0.0 | 0.00 | 0.01 | 0.00 | 83 | 1023.5 |
| 20260507131847 | 35 | 94 | 0.0 | 0.0 | 0.00 | 0.01 | 0.00 | 84 | 1023.5 |
| 20260507131331 | 34 | 94 | 0.0 | 0.0 | 0.00 | 0.01 | 0.00 | 85 | 1023.6 |
| 20260507130836 | 34 | 94 | 0.0 | 0.0 | 0.00 | 0.01 | 0.00 | 85 | 1023.6 |
| 20260507130344 | 34 | 94 | 0.0 | 0.0 | 0.00 | 0.01 | 0.00 | 86 | 1023.6 |
| 20260507125849 | 33 | 94 | 0.0 | 1.7 | 0.00 | 0.01 | 0.00 | 86 | 1023.7 |
| 20260507125332 | 33 | 94 | 0.0 | 1.7 | 0.00 | 0.01 | 0.00 | 87 | 1023.7 |
| 20260507124838 | 32 | 94 | 0.0 | 0.9 | 0.00 | 0.01 | 0.00 | 87 | 1023.6 |
| 20260507124344 | 32 | 94 | 0.0 | 0.9 | 0.00 | 0.01 | 0.00 | 88 | 1023.6 |
| 20260507123828 | 32 | 94 | 0.0 | 0.9 | 0.00 | 0.01 | 0.00 | 88 | 1023.5 |
| 20260507123333 | 32 | 94 | 0.0 | 0.9 | 0.00 | 0.01 | 0.00 | 88 | 1023.6 |
| 20260507122837 | 31 | 94 | 0.0 | 0.0 | 0.00 | 0.01 | 0.00 | 89 | 1023.6 |
| 20260507122342 | 31 | 94 | 0.0 | 0.0 | 0.00 | 0.01 | 0.00 | 89 | 1023.6 |
| 20260507121846 | 31 | 94 | 0.0 | 0.0 | 0.00 | 0.01 | 0.00 | 89 | 1023.6 |
| 20260507121335 | 31 | 94 | 0.0 | 0.0 | 0.00 | 0.01 | 0.00 | 89 | 1023.6 |
| 20260507120840 | 31 | 94 | 0.0 | 0.0 | 0.00 | 0.01 | 0.00 | 89 | 1023.6 |
| 20260507120325 | 31 | 94 | 0.0 | 0.0 | 0.00 | 0.01 | 0.00 | 88 | 1023.6 |
| 20260507115833 | 31 | 94 | 0.0 | 0.0 | 0.00 | 0.01 | 0.00 | 88 | 1023.6 |
| 20260507115337 | 30 | 94 | 0.0 | 0.0 | 0.00 | 0.01 | 0.00 | 88 | 1023.6 |
| 20260507114842 | 30 | 94 | 0.0 | 0.0 | 0.00 | 0.01 | 0.00 | 87 | 1023.4 |
| 20260507114347 | 30 | 94 | 0.0 | 0.0 | 0.00 | 0.01 | 0.00 | 87 | 1023.6 |
| 20260507113831 | 30 | 94 | 0.0 | 0.0 | 0.00 | 0.01 | 0.00 | 87 | 1023.5 |
| 20260507113336 | 30 | 94 | 0.0 | 0.0 | 0.00 | 0.01 | 0.00 | 86 | 1023.5 |
| 20260507112842 | 30 | 94 | 0.0 | 0.0 | 0.00 | 0.01 | 0.00 | 86 | 1023.5 |
| 20260507112334 | 30 | 94 | 0.0 | 0.0 | 0.00 | 0.01 | 0.00 | 86 | 1023.5 |
| 20260507111838 | 31 | 94 | 0.0 | 0.0 | 0.00 | 0.01 | 0.00 | 85 | 1023.4 |
| 20260507111343 | 31 | 94 | 0.0 | 0.0 | 0.00 | 0.01 | 0.00 | 85 | 1023.4 |
| 20260507110847 | 31 | 94 | 0.0 | 0.0 | 0.00 | 0.01 | 0.00 | 85 | 1023.4 |
| 20260507110332 | 31 | 94 | 0.0 | 0.0 | 0.00 | 0.01 | 0.00 | 84 | 1023.4 |
| 20260507105837 | 31 | 94 | 0.0 | 0.0 | 0.00 | 0.02 | 0.00 | 83 | 1023.4 |
| 20260507105342 | 31 | 94 | 0.0 | 0.0 | 0.00 | 0.02 | 0.00 | 83 | 1023.3 |
| 20260507104847 | 32 | 94 | 0.0 | 0.0 | 0.00 | 0.02 | 0.00 | 83 | 1023.4 |
| 20260507104332 | 32 | 94 | 0.0 | 0.0 | 0.00 | 0.02 | 0.00 | 83 | 1023.5 |
| 20260507103837 | 32 | 94 | 0.0 | 0.0 | 0.00 | 0.02 | 0.00 | 83 | 1023.5 |
| 20260507103342 | 32 | 94 | 0.0 | 0.0 | 0.00 | 0.02 | 0.00 | 82 | 1023.5 |
| 20260507102831 | 32 | 94 | 0.0 | 0.0 | 0.00 | 0.02 | 0.00 | 81 | 1023.5 |
| 20260507102336 | 32 | 94 | 0.0 | 0.0 | 0.00 | 0.02 | 0.00 | 81 | 1023.4 |
| 20260507101840 | 33 | 94 | 0.0 | 0.0 | 0.00 | 0.02 | 0.00 | 81 | 1023.4 |
| 20260507101345 | 33 | 94 | 0.0 | 0.0 | 0.00 | 0.02 | 0.00 | 81 | 1023.5 |
| 20260507100829 | 33 | 94 | 0.0 | 0.0 | 0.00 | 0.02 | 0.00 | 81 | 1023.5 |
| 20260507100334 | 33 | 94 | 0.0 | 0.0 | 0.00 | 0.02 | 0.00 | 81 | 1023.4 |
| 20260507095839 | 33 | 94 | 0.0 | 0.0 | 0.00 | 0.02 | 0.00 | 81 | 1023.4 |
| 20260507095344 | 33 | 94 | 0.0 | 0.0 | 0.00 | 0.02 | 0.00 | 81 | 1023.4 |
| 20260507094828 | 33 | 94 | 0.0 | 0.0 | 0.00 | 0.02 | 0.00 | 80 | 1023.5 |
| 20260507094333 | 33 | 94 | 0.0 | 0.0 | 0.00 | 0.02 | 0.00 | 79 | 1023.5 |
| 20260507093825 | 33 | 94 | 0.0 | 0.0 | 0.00 | 0.02 | 0.00 | 79 | 1023.5 |
| 20260507093333 | 33 | 94 | 0.0 | 0.0 | 0.00 | 0.02 | 0.00 | 79 | 1023.5 |
| 20260507092838 | 33 | 94 | 0.0 | 0.0 | 0.00 | 0.02 | 0.00 | 79 | 1023.5 |
| 20260507092343 | 33 | 94 | 0.0 | 0.0 | 0.00 | 0.02 | 0.00 | 78 | 1023.4 |
| 20260507091828 | 33 | 94 | 0.0 | 0.0 | 0.00 | 0.02 | 0.00 | 78 | 1023.5 |
| 20260507091337 | 33 | 94 | 0.0 | 0.0 | 0.00 | 0.02 | 0.00 | 79 | 1023.4 |
| 20260507090842 | 33 | 94 | 0.0 | 0.0 | 0.00 | 0.02 | 0.00 | 78 | 1023.4 |
| 20260507090329 | 33 | 94 | 0.0 | 0.0 | 0.00 | 0.02 | 0.00 | 78 | 1023.5 |
| 20260507085837 | 34 | 94 | 0.0 | 0.0 | 0.00 | 0.02 | 0.00 | 78 | 1023.4 |
| 20260507085329 | 34 | 94 | 0.0 | 0.0 | 0.00 | 0.02 | 0.00 | 78 | 1023.4 |
| 20260507084835 | 34 | 94 | 0.0 | 0.0 | 0.00 | 0.02 | 0.00 | 77 | 1023.3 |
| 20260507084342 | 34 | 94 | 0.0 | 0.0 | 0.00 | 0.02 | 0.00 | 77 | 1023.3 |
| 20260507083847 | 34 | 94 | 0.0 | 0.0 | 0.00 | 0.02 | 0.00 | 76 | 1023.2 |
| 20260507083332 | 35 | 94 | 0.0 | 0.0 | 0.00 | 0.02 | 0.00 | 75 | 1023.3 |
| 20260507082837 | 35 | 94 | 0.0 | 0.0 | 0.00 | 0.02 | 0.00 | 75 | 1023.2 |
| 20260507082342 | 35 | 94 | 0.0 | 0.0 | 0.00 | 0.02 | 0.00 | 74 | 1023.2 |
| 20260507081847 | 36 | 94 | 0.0 | 0.0 | 0.00 | 0.02 | 0.00 | 74 | 1023.2 |
| 20260507081331 | 36 | 94 | 0.0 | 0.0 | 0.00 | 0.02 | 0.00 | 73 | 1023.2 |
| 20260507080835 | 36 | 94 | 0.0 | 0.0 | 0.00 | 0.02 | 0.00 | 72 | 1023.2 |
| 20260507080340 | 36 | 94 | 0.0 | 0.0 | 0.00 | 0.02 | 0.00 | 72 | 1023.1 |
| 20260507075829 | 37 | 94 | 0.0 | 0.0 | 0.00 | 0.02 | 0.00 | 72 | 1023.1 |
| 20260507075333 | 37 | 94 | 0.0 | 0.0 | 0.00 | 0.02 | 0.00 | 71 | 1023.1 |
| 20260507074838 | 37 | 94 | 0.0 | 0.0 | 0.00 | 0.02 | 0.00 | 70 | 1023.1 |
| 20260507074342 | 37 | 94 | 0.0 | 0.9 | 0.00 | 0.02 | 0.00 | 70 | 1023.0 |
| 20260507073830 | 37 | 94 | 0.0 | 4.3 | 0.00 | 0.02 | 0.00 | 69 | 1023.0 |
| 20260507073338 | 38 | 94 | 0.9 | 4.3 | 0.00 | 0.02 | 0.00 | 67 | 1023.0 |
| 20260507072843 | 38 | 96 | 0.0 | 5.2 | 0.00 | 0.02 | 0.00 | 67 | 1023.0 |
| 20260507072328 | 37 | 96 | 1.7 | 5.2 | 0.00 | 0.02 | 0.00 | 69 | 1022.8 |
| 20260507071833 | 37 | 61 | 0.9 | 3.5 | 0.00 | 0.02 | 0.00 | 74 | 1022.7 |
| 20260507071338 | 38 | 310 | 0.0 | 2.6 | 0.00 | 0.02 | 0.00 | 76 | 1022.6 |
| 20260507070847 | 38 | 310 | 0.0 | 0.0 | 0.00 | 0.02 | 0.00 | 74 | 1022.6 |
| 20260507070332 | 38 | 310 | 0.0 | 0.0 | 0.00 | 0.02 | 0.00 | 74 | 1022.6 |
| 20260507065836 | 38 | 310 | 0.0 | 0.9 | 0.00 | 0.02 | 0.00 | 73 | 1022.6 |
| 20260507065344 | 38 | 310 | 0.0 | 0.9 | 0.00 | 0.02 | 0.00 | 74 | 1022.6 |
| 20260507064832 | 38 | 310 | 0.0 | 0.9 | 0.00 | 0.02 | 0.00 | 75 | 1022.6 |
| 20260507064339 | 38 | 310 | 0.0 | 2.6 | 0.00 | 0.02 | 0.00 | 75 | 1022.5 |
| 20260507063844 | 38 | 310 | 0.9 | 1.7 | 0.00 | 0.02 | 0.00 | 74 | 1022.4 |
| 20260507063329 | 38 | 310 | 0.0 | 1.7 | 0.00 | 0.02 | 0.00 | 73 | 1022.4 |
| 20260507062837 | 38 | 310 | 0.0 | 1.7 | 0.00 | 0.02 | 0.00 | 72 | 1022.3 |
| 20260507062341 | 38 | 310 | 0.0 | 2.6 | 0.00 | 0.02 | 0.00 | 71 | 1022.3 |
| 20260507061830 | 38 | 310 | 0.9 | 2.6 | 0.00 | 0.02 | 0.00 | 71 | 1022.3 |
| 20260507061334 | 38 | 310 | 0.9 | 2.6 | 0.00 | 0.02 | 0.00 | 70 | 1022.3 |
| 20260507060839 | 38 | 310 | 0.9 | 1.7 | 0.00 | 0.02 | 0.00 | 69 | 1022.3 |
| 20260507060344 | 38 | 310 | 0.0 | 0.9 | 0.00 | 0.02 | 0.00 | 68 | 1022.2 |
| 20260507055829 | 39 | 310 | 0.0 | 1.7 | 0.00 | 0.03 | 0.02 | 68 | 1022.2 |
| 20260507055334 | 39 | 310 | 0.9 | 3.5 | 0.00 | 0.03 | 0.02 | 68 | 1022.1 |
| 20260507054842 | 39 | 310 | 0.9 | 2.6 | 0.00 | 0.03 | 0.02 | 67 | 1022.0 |
| 20260507054347 | 39 | 310 | 0.0 | 0.0 | 0.00 | 0.03 | 0.02 | 67 | 1022.0 |
| 20260507053832 | 39 | 310 | 0.0 | 0.0 | 0.00 | 0.03 | 0.02 | 66 | 1021.9 |
| 20260507053337 | 39 | 310 | 0.0 | 0.0 | 0.00 | 0.03 | 0.02 | 66 | 1021.9 |
| 20260507052846 | 40 | 310 | 0.0 | 0.0 | 0.00 | 0.03 | 0.02 | 66 | 1021.9 |
| 20260507052331 | 40 | 310 | 0.0 | 0.0 | 0.00 | 0.03 | 0.02 | 65 | 1021.9 |
| 20260507051836 | 40 | 310 | 0.0 | 0.0 | 0.00 | 0.03 | 0.02 | 64 | 1021.8 |
| 20260507051340 | 40 | 310 | 0.0 | 0.0 | 0.00 | 0.03 | 0.02 | 63 | 1021.7 |
| 20260507050828 | 41 | 310 | 0.0 | 0.0 | 0.00 | 0.03 | 0.02 | 62 | 1021.7 |
| 20260507050332 | 41 | 310 | 0.0 | 0.0 | 0.00 | 0.03 | 0.02 | 63 | 1021.7 |
| 20260507045838 | 41 | 310 | 0.0 | 0.0 | 0.00 | 0.04 | 0.02 | 62 | 1021.6 |
| 20260507045343 | 41 | 310 | 0.0 | 0.0 | 0.00 | 0.04 | 0.02 | 62 | 1021.6 |
| 20260507044831 | 41 | 310 | 0.0 | 0.0 | 0.00 | 0.04 | 0.02 | 63 | 1021.6 |
| 20260507044336 | 42 | 310 | 0.0 | 0.0 | 0.00 | 0.04 | 0.02 | 62 | 1021.5 |